Weather History for Glenwood, MN

Change the Weather History Date:

Friday, April 25, 2014

  Actual Average Record
Temperature  
Mean Temperature 46 °F -  
Max Temperature 60 °F 62 °F 88 °F (1962)
Min Temperature 33 °F 36 °F 24 °F (1958)
Degree Days  
Heating Degree Days 18    
Moisture  
Dew Point 38 °F    
Average Humidity 78    
Maximum Humidity 100    
Minimum Humidity 45    
Precipitation  
Precipitation 0.00 in - - ()
Sea Level Pressure  
Sea Level Pressure 29.80 in    
Wind  
Wind Speed 7 mph (NW)    
Max Wind Speed 14 mph    
Max Gust Speed 18 mph    
Visibility 7 miles    
Events Fog    
Averages and records for this station are not official NWS values.
T = Trace of Precipitation, MM = Missing Value Source: NWS Daily Summary

Daily Weather History Graph

Daily Weather History Graph

Search for Another Location

Airport:

Trip Planner

Search our weather history database for the weather conditions in past years. The results will help you decide how hot, cold, wet, or windy it might be!

Date:

Astronomy

Apr. 25, 2014 Rise Set
Actual Time 6:18 AM CDT 8:20 PM CDT
Civil Twilight 5:46 AM CDT 8:53 PM CDT
Nautical Twilight 5:06 AM CDT 9:32 PM CDT
Astronomical Twilight 4:23 AM CDT 10:16 PM CDT
Moon 4:19 AM CDT (4/25) 4:33 PM CDT (4/25)
Length of Visible Light 15h 06m
Length of Day
14h 02m
Waning Crescent, 15% of the Moon is Illuminated
Apr 25
Waning Crescent
Apr 29
New
May 6
First Quarter
May 14
Full
May 21
Last Quarter

Hourly Weather History & Observations

Time (CDT) Temp. Windchill Dew Point Humidity Pressure Visibility Wind Dir Wind Speed Gust Speed Precip Events Conditions
12:13 AM 37.4 °F 34.9 °F 35.6 °F 93% 29.71 in 10.0 mi SW 3.5 mph - N/A   Clear
12:33 AM 35.6 °F 31.7 °F 35.6 °F 100% 29.70 in 10.0 mi SSW 4.6 mph - N/A   Clear
12:53 AM 37.4 °F 32.8 °F 37.4 °F 100% 29.71 in 10.0 mi WSW 5.8 mph - N/A   Clear
1:13 AM 37.4 °F 34.9 °F 37.4 °F 100% 29.71 in 7.0 mi West 3.5 mph - N/A   Clear
1:33 AM 35.6 °F 31.7 °F 35.6 °F 100% 29.71 in 1.2 mi West 4.6 mph - N/A   Clear
1:53 AM 37.4 °F 34.9 °F 35.6 °F 93% 29.72 in 1.2 mi West 3.5 mph - N/A   Clear
2:14 AM 37.4 °F 32.8 °F 37.4 °F 100% 29.71 in 7.0 mi West 5.8 mph - N/A   Clear
2:33 AM 33.8 °F 29.6 °F 33.8 °F 100% 29.72 in 1.0 mi SW 4.6 mph - N/A   Mostly Cloudy
2:53 AM 35.6 °F - 33.8 °F 93% 29.72 in 0.8 mi Calm Calm - N/A   Mostly Cloudy
3:14 AM 35.6 °F 32.8 °F 33.8 °F 93% 29.72 in 0.5 mi SW 3.5 mph - N/A Fog Fog
3:33 AM 33.8 °F 30.8 °F 33.8 °F 100% 29.72 in 0.5 mi WSW 3.5 mph - N/A Fog Fog
3:53 AM 35.6 °F 29.9 °F 35.6 °F 100% 29.72 in 10.0 mi West 6.9 mph - N/A   Clear
4:13 AM 35.6 °F 28.0 °F 35.6 °F 100% 29.72 in 10.0 mi West 10.4 mph - N/A   Clear
4:33 AM 37.4 °F 30.3 °F 37.4 °F 100% 29.72 in 10.0 mi West 10.4 mph - N/A   Clear
4:53 AM 35.6 °F 28.6 °F 35.6 °F 100% 29.71 in 10.0 mi West 9.2 mph - N/A   Clear
5:13 AM 35.6 °F 27.5 °F 35.6 °F 100% 29.72 in 7.0 mi West 11.5 mph - N/A   Clear
5:34 AM 35.6 °F 27.5 °F 35.6 °F 100% 29.73 in 7.0 mi West 11.5 mph - N/A   Clear
5:53 AM 35.6 °F 28.0 °F 35.6 °F 100% 29.74 in 1.0 mi West 10.4 mph - N/A   Overcast
6:13 AM 35.6 °F 29.9 °F 33.8 °F 93% 29.75 in 0.2 mi West 6.9 mph - N/A Fog Fog
6:34 AM 35.6 °F 29.9 °F 35.6 °F 100% 29.76 in 0.2 mi WNW 6.9 mph - N/A Fog Fog
6:53 AM 35.6 °F 29.9 °F 35.6 °F 100% 29.77 in 0.2 mi WNW 6.9 mph - N/A   Overcast
7:13 AM 37.4 °F 33.8 °F 35.6 °F 93% 29.77 in 0.2 mi WNW 4.6 mph - N/A Fog Fog
7:34 AM 37.4 °F 30.8 °F 37.4 °F 100% 29.77 in 0.2 mi WNW 9.2 mph - N/A Fog Fog
7:53 AM 37.4 °F 30.3 °F 37.4 °F 100% 29.78 in 0.2 mi WNW 10.4 mph - N/A Fog Fog
8:13 AM 37.4 °F 29.8 °F 37.4 °F 100% 29.78 in 0.5 mi WNW 11.5 mph - N/A Fog Fog
8:33 AM 39.2 °F 32.0 °F 39.2 °F 100% 29.79 in 2.0 mi WNW 11.5 mph 17.3 mph N/A   Overcast
8:53 AM 39.2 °F 31.6 °F 39.2 °F 100% 29.80 in 2.0 mi WNW 12.7 mph - N/A   Overcast
9:13 AM 39.2 °F 32.5 °F 39.2 °F 100% 29.80 in 2.5 mi WNW 10.4 mph - N/A   Overcast
9:33 AM 41.0 °F 35.2 °F 39.2 °F 93% 29.80 in 3.0 mi NW 9.2 mph - N/A   Overcast
9:53 AM 41.0 °F 34.7 °F 41.0 °F 100% 29.80 in 5.0 mi WNW 10.4 mph - N/A   Overcast
10:14 AM 42.8 °F 38.6 °F 42.8 °F 100% 29.80 in 5.0 mi NW 6.9 mph - N/A   Mostly Cloudy
10:33 AM 44.6 °F 40.2 °F 41.0 °F 87% 29.80 in 7.0 mi NW 8.1 mph - N/A   Scattered Clouds
10:53 AM 46.4 °F 42.4 °F 41.0 °F 81% 29.80 in 7.0 mi NW 8.1 mph - N/A   Scattered Clouds
11:14 AM 46.4 °F 42.4 °F 41.0 °F 81% 29.80 in 10.0 mi NNW 8.1 mph - N/A   Scattered Clouds
11:33 AM 48.2 °F - 42.8 °F 82% 29.80 in 10.0 mi NNW 6.9 mph - N/A   Scattered Clouds
11:53 AM 50.0 °F - 42.8 °F 76% 29.81 in 10.0 mi NW 6.9 mph - N/A   Scattered Clouds
12:14 PM 51.8 °F - 42.8 °F 71% 29.81 in 10.0 mi NNW 6.9 mph - N/A   Clear
12:33 PM 53.6 °F - 42.8 °F 67% 29.81 in 10.0 mi NW 9.2 mph - N/A   Clear
12:53 PM 55.4 °F - 42.8 °F 63% 29.81 in 10.0 mi WNW 10.4 mph - N/A   Clear
1:14 PM 55.4 °F - 42.8 °F 63% 29.80 in 10.0 mi West 10.4 mph - N/A   Clear
1:33 PM 55.4 °F - 41.0 °F 58% 29.81 in 10.0 mi West 10.4 mph 18.4 mph N/A   Clear
1:53 PM 57.2 °F - 41.0 °F 55% 29.81 in 10.0 mi WNW 13.8 mph - N/A   Clear
2:14 PM 57.2 °F - 42.8 °F 59% 29.81 in 10.0 mi NW 9.2 mph - N/A   Clear
2:33 PM 59.0 °F - 42.8 °F 55% 29.81 in 10.0 mi WNW 9.2 mph 18.4 mph N/A   Clear
2:53 PM 59.0 °F - 42.8 °F 55% 29.81 in 10.0 mi NW 10.4 mph - N/A   Clear
3:13 PM 59.0 °F - 42.8 °F 55% 29.81 in 10.0 mi NW 10.4 mph 16.1 mph N/A   Clear
3:33 PM 60.8 °F - 42.8 °F 52% 29.82 in 10.0 mi NW 12.7 mph 17.3 mph N/A   Clear
3:53 PM 59.0 °F - 41.0 °F 51% 29.81 in 10.0 mi NNW 10.4 mph 17.3 mph N/A   Clear
4:13 PM 60.8 °F - 39.2 °F 45% 29.81 in 10.0 mi WNW 11.5 mph 17.3 mph N/A   Clear
4:33 PM 59.0 °F - 41.0 °F 51% 29.81 in 10.0 mi NW 6.9 mph - N/A   Clear
4:53 PM 60.8 °F - 39.2 °F 45% 29.80 in 10.0 mi NNW 8.1 mph - N/A   Clear
5:13 PM 59.0 °F - 39.2 °F 48% 29.81 in 10.0 mi North 11.5 mph - N/A   Clear
5:33 PM 59.0 °F - 39.2 °F 48% 29.81 in 10.0 mi North 11.5 mph - N/A   Clear
5:53 PM 57.2 °F - 37.4 °F 48% 29.82 in 10.0 mi North 9.2 mph - N/A   Clear
6:13 PM 57.2 °F - 37.4 °F 48% 29.82 in 10.0 mi NNW 8.1 mph - N/A   Clear
6:33 PM 57.2 °F - 37.4 °F 48% 29.83 in 10.0 mi North 8.1 mph - N/A   Clear
6:53 PM 57.2 °F - 39.2 °F 51% 29.84 in 10.0 mi NNE 9.2 mph - N/A   Clear
7:13 PM 55.4 °F - 37.4 °F 51% 29.84 in 10.0 mi North 6.9 mph - N/A   Clear
7:33 PM 55.4 °F - 37.4 °F 51% 29.85 in 10.0 mi North 5.8 mph - N/A   Clear
7:53 PM 53.6 °F - 37.4 °F 54% 29.85 in 10.0 mi North 5.8 mph - N/A   Clear
8:13 PM 51.8 °F - 37.4 °F 58% 29.85 in 10.0 mi North 6.9 mph - N/A   Clear
8:33 PM 50.0 °F - 37.4 °F 62% 29.86 in 10.0 mi North 6.9 mph - N/A   Clear
8:53 PM 48.2 °F - 37.4 °F 66% 29.87 in 10.0 mi North 3.5 mph - N/A   Clear
9:13 PM 48.2 °F - 37.4 °F 66% 29.88 in 10.0 mi North 3.5 mph - N/A   Clear
9:33 PM 46.4 °F 44.3 °F 37.4 °F 71% 29.89 in 10.0 mi North 4.6 mph - N/A   Clear
9:53 PM 46.4 °F 41.9 °F 37.4 °F 71% 29.90 in 10.0 mi NNE 9.2 mph - N/A   Clear
10:13 PM 44.6 °F 40.7 °F 37.4 °F 76% 29.90 in 10.0 mi NE 6.9 mph - N/A   Clear
10:34 PM 42.8 °F 37.5 °F 37.4 °F 81% 29.92 in 10.0 mi NE 9.2 mph - N/A   Clear
10:53 PM 42.8 °F 35.8 °F 37.4 °F 81% 29.92 in 10.0 mi NE 13.8 mph - N/A   Clear
11:13 PM 41.0 °F 34.3 °F 33.8 °F 76% 29.92 in 10.0 mi NE 11.5 mph - N/A   Clear
11:53 PM 39.2 °F 32.5 °F 32.0 °F 75% 29.92 in 10.0 mi NE 10.4 mph - N/A   Clear